Wolf Point, MT

9:22 PM MST on December 12, 2017 (GMT -0700)
Clayton

Weather History for KOLF - March, 2014

Change the Weather History Date:

Thursday, March 6, 2014

  Actual Average Record
Temperature  
Mean Temperature 22 °F -  
Max Temperature 30 °F 38 °F 74 °F (2016)
Min Temperature 13 °F 13 °F -9 °F (2003)
Degree Days  
Heating Degree Days 43    
Cooling Degree Days 0    
Moisture  
Dew Point 14 °F    
Average Humidity 74    
Maximum Humidity 84    
Minimum Humidity 64    
Precipitation  
Precipitation T in 0.01 in 0.11 in (2017)
Month to date precipitation 0.05 0.06  
Year to date precipitation 0.19 0.58  
Sea Level Pressure  
Sea Level Pressure 29.84 in    
Wind  
Wind Speed 6 mph (NNE)    
Max Wind Speed 15 mph    
Max Gust Speed -    
Visibility 10 miles    
Events      
T = Trace of Precipitation, MM = Missing Value Source: NWS Daily Summary

Daily Weather History Graph

Daily Weather History Graph

Search for Another Location

Airport or City:

Trip Planner

Search our weather history database for the weather conditions in past years. The results will help you decide how hot, cold, wet, or windy it might be!

Date:

Astronomy

Mar. 06, 2014 Rise Set
Actual Time 6:33 AM MST 5:54 PM MST
Civil Twilight 6:02 AM MST 6:25 PM MST
Nautical Twilight 5:26 AM MST 7:01 PM MST
Astronomical Twilight 4:50 AM MST 7:37 PM MST
Moon 9:17 AM MST (3/6) No Moon Set
Length of Visible Light 12h 23m
Length of Day
11h 20m
Waxing Crescent, 33% of the Moon is Illuminated
Mar 6
Waxing Crescent
Mar 8
First Quarter
Mar 16
Full
Mar 23
Last Quarter
Mar 30
New

Hourly Weather History & Observations

Time (MST) Temp. Windchill Dew Point Humidity Pressure Visibility Wind Dir Wind Speed Gust Speed Precip Events Conditions
12:53 AM 19.9 °F - 15.1 °F 81% 29.74 in 10.0 mi Calm Calm - N/A   Clear
1:53 AM 17.1 °F - 12.0 °F 81% 29.74 in 10.0 mi Calm Calm - N/A   Clear
2:53 AM 16.0 °F - 12.0 °F 84% 29.75 in 9.0 mi Calm Calm - N/A   Clear
3:53 AM 16.0 °F - 12.0 °F 84% 29.77 in 10.0 mi Calm Calm - N/A   Clear
4:53 AM 19.9 °F 13.4 °F 15.1 °F 81% 29.78 in 10.0 mi ESE 4.6 mph - N/A   Clear
5:53 AM 19.9 °F 10.1 °F 15.1 °F 81% 29.77 in 10.0 mi NE 8.1 mph - N/A   Mostly Cloudy
6:53 AM 21.9 °F - 16.0 °F 78% 29.80 in 10.0 mi Calm Calm - N/A   Overcast
7:53 AM 21.9 °F 9.8 °F 17.1 °F 82% 29.76 in 10.0 mi NE 12.7 mph - 0.00 in   Overcast
8:53 AM 23.0 °F 11.1 °F 17.1 °F 78% 29.78 in 9.0 mi NE 12.7 mph - N/A   Overcast
9:02 AM 23.0 °F 11.7 °F 17.1 °F 78% 29.70 in 9.0 mi ENE 11.5 mph - N/A   Overcast
9:09 AM 23.0 °F 12.4 °F 18.0 °F 81% 29.70 in 10.0 mi ENE 10.4 mph - 0.00 in   Overcast
9:25 AM 23.0 °F 14.7 °F 17.1 °F 78% 29.71 in 8.0 mi ENE 6.9 mph - 0.00 in   Overcast
9:53 AM 23.0 °F 15.8 °F 17.1 °F 78% 29.81 in 7.0 mi NE 5.8 mph - 0.00 in   Overcast
10:44 AM 24.1 °F 14.4 °F 19.0 °F 81% 29.67 in 8.0 mi East 9.2 mph - 0.00 in   Overcast
10:53 AM 25.0 °F 16.3 °F 19.0 °F 78% 29.78 in 9.0 mi East 8.1 mph - 0.00 in   Overcast
11:18 AM 25.0 °F 17.1 °F 19.0 °F 78% 29.68 in 10.0 mi NE 6.9 mph - N/A   Overcast
11:53 AM 26.1 °F 18.4 °F 19.9 °F 78% 29.76 in 10.0 mi East 6.9 mph - N/A   Overcast
12:53 PM 28.0 °F 19.3 °F 19.9 °F 72% 29.80 in 10.0 mi WNW 9.2 mph - N/A   Overcast
1:53 PM 28.9 °F 21.1 °F 21.9 °F 75% 29.79 in 10.0 mi NNW 8.1 mph - N/A   Overcast
2:39 PM 28.0 °F 17.5 °F 19.9 °F 72% 29.73 in 10.0 mi North 12.7 mph - N/A   Overcast
2:53 PM 27.0 °F 16.1 °F 18.0 °F 69% 29.84 in 10.0 mi North 12.7 mph - N/A   Overcast
3:53 PM 25.0 °F 14.8 °F 16.0 °F 69% 29.88 in 10.0 mi North 10.4 mph - N/A   Overcast
4:53 PM 23.0 °F 13.1 °F 14.0 °F 68% 29.91 in 10.0 mi North 9.2 mph - N/A   Overcast
5:08 PM 23.0 °F 13.1 °F 14.0 °F 68% 29.82 in 10.0 mi North 9.2 mph - N/A   Overcast
5:16 PM 21.9 °F 11.0 °F 14.0 °F 72% 29.82 in 10.0 mi North 10.4 mph - N/A   Mostly Cloudy
5:53 PM 21.0 °F 10.6 °F 12.0 °F 68% 29.96 in 10.0 mi NNW 9.2 mph - N/A   Overcast
6:53 PM 19.0 °F 5.0 °F 9.0 °F 65% 30.02 in 10.0 mi North 15.0 mph - N/A   Overcast
7:53 PM 17.1 °F 5.0 °F 7.0 °F 65% 30.06 in 10.0 mi North 10.4 mph - N/A   Overcast
8:06 PM 17.1 °F 4.3 °F 7.0 °F 65% 29.96 in 10.0 mi NNW 11.5 mph - N/A   Overcast
8:53 PM 16.0 °F 4.4 °F 6.1 °F 65% 30.08 in 10.0 mi North 9.2 mph - N/A   Overcast
9:53 PM 15.1 °F 2.5 °F 5.0 °F 64% 30.12 in 10.0 mi North 10.4 mph - N/A   Overcast
10:53 PM 14.0 °F -0.2 °F 3.9 °F 64% 30.15 in 10.0 mi North 12.7 mph - N/A   Overcast
11:53 PM 12.9 °F -0.2 °F 3.0 °F 65% 30.17 in 10.0 mi NNW 10.4 mph - N/A   Overcast